[[{"header":{"parameterUnit":"m.s-1","parameterCategory":1,"la1":30.2991,"la2":30.254,"lo1":-89.0895,"lo2":-89.0444,"dy":0.0017,"dx":0.0017,"nx":28,"ny":28,"refTime":"2023-10-02T03:00:00:Z","depth":0,"parameterNumber":2,"parameterNumberName":"U-component_of_WINDS"},"data":[0,0,0,0,0,0,0,0,0,0,0,0,0,0,0,0,0,0,0,0,0,0,0,0,0,0,0,0,0,0,0,0,0,0,0,0,0,0,0,0,0,0,0,0,0,0,0,0,0,0,0,0,0,0,0,0,0,0,-5.6421,-5.6422,0,-5.6544,-5.6545,-5.6546,-5.6365,-5.6359,-5.6353,-5.6346,-5.6477,-5.6487,-5.6496,0,0,0,0,0,0,0,0,0,0,0,0,0,-5.6034,-5.6042,-5.6421,-5.6422,-5.6424,-5.6543,-5.6545,-5.6547,-5.6366,-5.6359,-5.6351,-5.6344,-5.6474,-5.6485,-5.6497,0,0,0,0,0,0,0,0,0,0,0,0,0,-5.6184,-5.6045,-5.6421,-5.6348,-5.6343,-5.6543,-5.6545,-5.6547,-5.6368,-5.6358,-5.6349,-5.634,-5.6471,-5.6484,-5.6498,-5.6777,0,0,-5.6541,-5.6548,0,0,0,0,0,0,0,0,-5.6176,-5.6199,-5.6357,-5.6353,-5.6348,-5.6429,-5.6456,-5.6624,-5.637,-5.6359,-5.6346,-5.6335,-5.6469,-5.6483,-5.6527,-5.6783,-5.6788,-5.6543,-5.6551,-5.6557,-5.6561,0,0,0,0,0,0,0,-5.6166,-5.6192,-5.6469,-5.636,-5.6354,-5.6311,-5.6322,-5.6487,-5.6466,-5.6359,-5.6346,-5.6363,-5.6465,-5.6514,-5.6529,-5.679,-5.6542,-5.6555,-5.6564,-5.6569,-5.728,-5.729,0,0,0,0,0,0,-5.6163,-5.6185,-5.6465,-5.6473,-5.6236,-5.6326,-5.6337,-5.6413,-5.6464,-5.6462,-5.6371,-5.6354,-5.6495,-5.6513,-5.6533,-5.6862,-5.6557,-5.6571,-5.6579,-5.727,-5.7282,-5.7294,0,0,0,0,0,0,-5.6156,-5.619,-5.646,-5.6326,-5.6357,-5.6342,-5.6428,-5.642,-5.6469,-5.6473,-5.6469,-5.6425,-5.6488,-5.6513,-5.6717,-5.6864,-5.6577,-5.659,-5.7257,-5.7274,-5.7288,-5.7523,0,0,0,0,0,0,-5.6146,-5.6189,-5.6293,-5.6329,-5.6364,-5.6642,-5.6437,-5.643,-5.6493,-5.6472,-5.6522,-5.6521,-5.6482,-5.6697,-5.6731,-5.6878,-5.6601,-5.7244,-5.7265,-5.7283,-5.7502,-5.7544,-5.7581,0,0,0,0,0,-5.6132,-5.6356,-5.63,-5.6335,-5.6495,-5.6651,-5.6671,-5.662,-5.6506,-5.6612,-5.6614,-5.652,-5.6842,-5.6719,-5.6756,-5.691,-5.7235,-5.7259,-5.7281,-5.7484,-5.7536,-5.758,0,0,0,0,0,0,-5.634,-5.6359,-5.6297,-5.6539,-5.6594,-5.662,-5.6752,-5.6677,-5.6768,-5.6745,-5.6679,-5.6692,-5.691,-5.693,-5.6793,-5.7182,-5.7019,-5.7052,-5.7161,-5.721,-5.7249,-5.724,-5.6612,0,0,0,0,0,-5.6413,-5.6537,-5.6548,-5.676,-5.6791,-5.6767,-5.6833,-5.6789,-5.6845,-5.6868,-5.6885,-5.6944,-5.7058,-5.7135,-5.7241,-5.7503,-5.7512,-5.7627,-5.7667,-5.7699,-5.7728,-5.7869,-5.792,-5.737,-5.737,-5.737,0,0,-5.6567,-5.6593,-5.6675,-5.6802,-5.684,-5.6971,-5.6788,-5.6934,-5.7031,-5.689,-5.7083,-5.7099,-5.716,-5.7395,-5.7499,-5.7418,-5.7882,-5.7729,-5.7755,-5.7766,-5.7898,-5.795,-5.7996,-5.7386,-5.7383,-5.7381,0,0,-5.6914,-5.6946,-5.7126,-5.7167,-5.7226,-5.7208,-5.7252,-5.7289,-5.7293,-5.7485,-5.7383,-5.7497,-5.7696,-5.7743,-5.7794,-5.8159,-5.8075,-5.8195,-5.8402,-5.854,-5.8583,-5.8621,-5.8752,-5.8799,-5.8223,-5.8224,-5.8224,0,-5.7098,-5.7289,-5.7228,-5.7381,-5.744,-5.7317,-5.7499,-5.7543,-5.7635,-5.7679,-5.7586,-5.7832,-5.7865,-5.8109,-5.8198,-5.8242,-5.8291,-5.8189,-5.8581,-5.8619,-5.8654,-5.8777,-5.8827,-5.8238,-5.8236,-5.8235,-5.8234,0,-5.7513,-5.7648,-5.7786,-5.7875,-5.795,-5.8118,-5.8082,-5.8166,-5.8115,-5.8108,-5.8306,-5.834,-5.845,-5.8505,-5.8458,-5.8743,-5.8691,-5.8591,-5.8427,-5.8721,-5.8836,-5.8883,-5.8258,-5.8253,-5.8249,-5.8245,0,0,-5.7995,-5.8047,-5.81,-5.8138,-5.8194,-5.8298,-5.8459,-5.8565,-5.8638,-5.8705,-5.884,-5.901,-5.8918,-5.8976,-5.8932,-5.9053,-5.934,-5.8939,-5.8939,-5.9013,-5.9657,-5.9732,-5.9788,-5.9285,-5.9294,-5.9301,-5.9652,0,-5.8341,-5.8619,-5.8568,-5.8839,-5.8963,-5.8847,-5.8988,-5.9039,-5.9036,-5.9142,-5.9139,-5.9261,-5.913,-5.9164,-5.9278,-5.9281,-5.9469,-5.9255,-5.9411,-5.9417,-5.94,-5.9848,-5.9928,-6.0258,-5.9697,-5.9704,-5.971,0,-5.8782,-5.8864,-5.9147,-5.9182,-5.9232,-5.936,-5.9453,-5.9555,-5.961,-5.9599,-5.9663,-5.9597,-5.976,-5.9593,-5.9816,-5.9672,-5.9732,-5.9743,-5.9755,-5.9768,-5.9582,-5.9874,-6.0362,-6.0412,-5.978,-5.9774,-5.9769,0,-5.9106,-5.9287,-5.9479,-5.9516,-5.9563,-5.9655,-5.9679,-5.9724,-5.9791,-5.9872,-5.9915,-6.0015,-6.0071,-6.0151,-6.0114,-5.9996,-6.0345,-6.0174,-6.0342,-6.0343,-6.0421,-6.0417,-6.0926,-6.046,-6.0459,-6.0458,-6.0457,0,-5.9498,-5.9676,-5.9625,-5.9744,-5.994,-5.988,-6.0077,-6.0087,-6.0128,-6.0247,-6.0154,-6.0268,-6.0212,-6.0323,-6.0296,-6.0485,-6.0511,-6.0508,-6.0499,-6.0517,-6.0517,-6.0556,-6.0533,-6.0472,-6.0469,-6.0466,-6.0464,0,-5.9893,-5.9866,-6.0068,-6.0095,-6.0106,-6.0249,-6.0272,-6.0384,-6.0373,-6.0526,-6.0558,-6.0544,-6.0669,-6.064,-6.0778,-6.0759,-6.0998,-6.0959,-6.0979,-6.097,-6.1139,-6.1124,-6.1692,-6.1763,-6.1251,-6.1256,-6.126,0,-6.0146,-6.0279,-6.032,-6.0392,-6.0423,-6.0541,-6.0608,-6.0554,-6.0628,-6.07,-6.0804,-6.092,-6.1011,-6.1217,-6.122,-6.1325,-6.1289,-6.148,-6.1304,-6.1318,-6.1292,-6.1285,-6.1298,-6.1516,-6.1522,-6.1526,-6.153,0,-6.0596,-6.0576,-6.0675,-6.0771,-6.0853,-6.0927,-6.0991,-6.1056,-6.1007,-6.1096,-6.1222,-6.1292,-6.1432,-6.1549,-6.1646,-6.1671,-6.1595,-6.1586,-6.163,-6.165,-6.1656,-6.1655,-6.1075,-6.1573,-6.1569,-6.1566,-6.1563,-6.1562,-6.0928,-6.1041,-6.1087,-6.1201,-6.1243,-6.1306,-6.1411,-6.1414,-6.1517,-6.1626,-6.1588,-6.1733,-6.1784,-6.1905,-6.1943,-6.2056,-6.1984,-6.2048,-6.2064,-6.2081,-6.2102,-6.1638,-6.2073,-6.2072,-6.2071,-6.207,-6.2069,0,-6.1374,-6.1397,-6.1502,-6.1594,-6.1685,-6.1601,-6.1668,-6.175,-6.1877,-6.1931,-6.2021,-6.2167,-6.228,-6.2291,-6.2398,-6.2486,-6.2454,-6.2516,-6.251,-6.2517,-6.2161,-6.2111,-6.2541,-6.2541,-6.2541,-6.2541,-6.2541,-6.2541,-6.1616,-6.1803,-6.1789,-6.1997,-6.2019,-6.2158,-6.2204,-6.2261,-6.2303,-6.2469,-6.2562,-6.2567,-6.2604,-6.2713,-6.2813,-6.2814,-6.2858,-6.2935,-6.2922,-6.2589,-6.2542,-6.2497,-6.2451,-6.2945,-6.2945,-6.3268,-6.3271,-6.3274]},{"header":{"parameterUnit":"m.s-1","parameterCategory":1,"la1":30.2991,"la2":30.254,"lo1":-89.0895,"lo2":-89.0444,"dy":0.0017,"dx":0.0017,"nx":28,"ny":28,"refTime":"2023-10-02T03:00:00:Z","depth":0,"parameterNumber":3,"parameterNumberName":"V-component_of_WINDS"},"data":[0,0,0,0,0,0,0,0,0,0,0,0,0,0,0,0,0,0,0,0,0,0,0,0,0,0,0,0,0,0,0,0,0,0,0,0,0,0,0,0,0,0,0,0,0,0,0,0,0,0,0,0,0,0,0,0,0,0,-1.8295,-1.8295,0,-1.8285,-1.8285,-1.8285,-1.8273,-1.8272,-1.8272,-1.8272,-1.8261,-1.826,-1.826,0,0,0,0,0,0,0,0,0,0,0,0,0,-1.8301,-1.8301,-1.8295,-1.8295,-1.8295,-1.8285,-1.8285,-1.8285,-1.8273,-1.8272,-1.8272,-1.8272,-1.8261,-1.826,-1.826,0,0,0,0,0,0,0,0,0,0,0,0,0,-1.8296,-1.8301,-1.8295,-1.8288,-1.8287,-1.8285,-1.8285,-1.8285,-1.8273,-1.8272,-1.8272,-1.8272,-1.8261,-1.826,-1.826,-1.8265,0,0,-1.826,-1.826,0,0,0,0,0,0,0,0,-1.8296,-1.8296,-1.8289,-1.8288,-1.8288,-1.828,-1.8283,-1.8278,-1.8273,-1.8278,-1.8272,-1.8272,-1.8267,-1.8266,-1.8265,-1.8264,-1.8264,-1.826,-1.826,-1.8259,-1.8259,0,0,0,0,0,0,0,-1.8297,-1.8296,-1.8291,-1.8289,-1.8288,-1.8284,-1.8283,-1.8282,-1.8274,-1.8278,-1.8277,-1.8276,-1.8267,-1.8265,-1.8265,-1.8264,-1.826,-1.8259,-1.8259,-1.8259,-1.8264,-1.8264,0,0,0,0,0,0,-1.8298,-1.8296,-1.8292,-1.8291,-1.8291,-1.8284,-1.8283,-1.8283,-1.8274,-1.8273,-1.8276,-1.8275,-1.8266,-1.8265,-1.8264,-1.8268,-1.8259,-1.8259,-1.8259,-1.8263,-1.8264,-1.8264,0,0,0,0,0,0,-1.8299,-1.8298,-1.8292,-1.8293,-1.8292,-1.8284,-1.8284,-1.8283,-1.8281,-1.8273,-1.8271,-1.8276,-1.8266,-1.8265,-1.8264,-1.8267,-1.8259,-1.8259,-1.8263,-1.8263,-1.8264,-1.8275,0,0,0,0,0,0,-1.8299,-1.8298,-1.8301,-1.8294,-1.8292,-1.8293,-1.8284,-1.8283,-1.8281,-1.828,-1.8273,-1.8271,-1.8265,-1.8265,-1.8264,-1.8267,-1.8259,-1.8263,-1.8263,-1.8264,-1.8275,-1.8276,-1.8277,0,0,0,0,0,-1.8299,-1.8305,-1.8301,-1.83,-1.8295,-1.8293,-1.8293,-1.8286,-1.8281,-1.8283,-1.8278,-1.8272,-1.8267,-1.8265,-1.8264,-1.8267,-1.8263,-1.8263,-1.8264,-1.8274,-1.8276,-1.8277,0,0,0,0,0,0,-1.8312,-1.8304,-1.8299,-1.8303,-1.8299,-1.8291,-1.8294,-1.8288,-1.8285,-1.8284,-1.8275,-1.8274,-1.8274,-1.827,-1.8268,-1.8269,-1.8264,-1.8264,-1.8272,-1.8274,-1.8275,-1.8276,-1.8259,0,0,0,0,0,-1.8316,-1.8315,-1.8308,-1.8311,-1.831,-1.8302,-1.8301,-1.8296,-1.8291,-1.8289,-1.8284,-1.8279,-1.8276,-1.8275,-1.8272,-1.8274,-1.8271,-1.8275,-1.8276,-1.8278,-1.8278,-1.8277,-1.8278,-1.8266,-1.8266,-1.8265,0,0,-1.8322,-1.8318,-1.8318,-1.8314,-1.831,-1.8309,-1.8301,-1.83,-1.8299,-1.8289,-1.8288,-1.8284,-1.8278,-1.8278,-1.8278,-1.8275,-1.8281,-1.8278,-1.8279,-1.8279,-1.8278,-1.8279,-1.828,-1.8266,-1.8266,-1.8266,0,0,-1.8334,-1.8331,-1.8333,-1.833,-1.8324,-1.8318,-1.8319,-1.8312,-1.8308,-1.8307,-1.8299,-1.8297,-1.8293,-1.8289,-1.8286,-1.8294,-1.8288,-1.8293,-1.83,-1.8299,-1.83,-1.8301,-1.8302,-1.8303,-1.8293,-1.8293,-1.8293,0,-1.8344,-1.8343,-1.8335,-1.8335,-1.8332,-1.8323,-1.8324,-1.8321,-1.8314,-1.8312,-1.8309,-1.8302,-1.8298,-1.8296,-1.8298,-1.8296,-1.8296,-1.8294,-1.83,-1.8301,-1.8302,-1.8303,-1.8304,-1.8294,-1.8294,-1.8294,-1.8294,0,-1.8353,-1.8352,-1.8355,-1.8348,-1.8346,-1.8347,-1.8338,-1.8337,-1.8331,-1.8326,-1.8324,-1.8318,-1.8313,-1.8312,-1.8307,-1.8309,-1.8307,-1.8302,-1.8296,-1.8304,-1.8305,-1.8306,-1.8295,-1.8295,-1.8295,-1.8294,0,0,-1.8374,-1.8363,-1.8364,-1.836,-1.8352,-1.8351,-1.835,-1.8345,-1.8343,-1.8339,-1.8337,-1.8333,-1.8328,-1.8325,-1.8319,-1.8318,-1.8323,-1.8313,-1.8313,-1.8314,-1.8323,-1.8327,-1.8328,-1.8319,-1.8319,-1.8319,-1.8324,0,-1.8384,-1.8383,-1.8375,-1.8376,-1.8374,-1.8364,-1.8363,-1.8357,-1.8352,-1.8349,-1.8342,-1.8339,-1.8333,-1.8331,-1.833,-1.8323,-1.8325,-1.8322,-1.8316,-1.8316,-1.8318,-1.8329,-1.8333,-1.8337,-1.8324,-1.8324,-1.8324,0,-1.8396,-1.8391,-1.8392,-1.8382,-1.8381,-1.8381,-1.8375,-1.8372,-1.8365,-1.8361,-1.8356,-1.8349,-1.8346,-1.8341,-1.8336,-1.8335,-1.8332,-1.8327,-1.8327,-1.8326,-1.8321,-1.8327,-1.8339,-1.8339,-1.8325,-1.8325,-1.8325,0,-1.841,-1.8404,-1.8403,-1.84,-1.839,-1.8389,-1.8385,-1.8377,-1.8374,-1.8368,-1.8366,-1.836,-1.8357,-1.8352,-1.8343,-1.834,-1.8339,-1.8333,-1.8334,-1.8334,-1.8334,-1.8334,-1.8345,-1.8333,-1.8333,-1.8333,-1.8333,0,-1.8421,-1.8421,-1.8409,-1.8408,-1.8408,-1.8398,-1.8398,-1.8392,-1.8385,-1.8382,-1.8373,-1.8371,-1.8359,-1.8355,-1.8348,-1.8344,-1.8343,-1.8339,-1.8337,-1.8339,-1.834,-1.8337,-1.8336,-1.8333,-1.8333,-1.8333,-1.8333,0,-1.8437,-1.8428,-1.8426,-1.8416,-1.8413,-1.8413,-1.8404,-1.8402,-1.8396,-1.8392,-1.8391,-1.838,-1.8374,-1.8365,-1.8356,-1.8351,-1.8349,-1.8346,-1.8351,-1.835,-1.8352,-1.8351,-1.8361,-1.8361,-1.8349,-1.835,-1.835,0,-1.8444,-1.8444,-1.8434,-1.8431,-1.8427,-1.8423,-1.842,-1.841,-1.8406,-1.8397,-1.8396,-1.839,-1.8384,-1.8375,-1.8366,-1.8359,-1.8356,-1.8359,-1.8355,-1.8357,-1.8355,-1.8355,-1.8354,-1.836,-1.8361,-1.8361,-1.8361,0,-1.8458,-1.8454,-1.845,-1.8443,-1.8439,-1.8434,-1.8428,-1.8426,-1.8415,-1.8411,-1.8405,-1.8401,-1.8392,-1.8385,-1.8376,-1.8371,-1.8363,-1.8362,-1.8362,-1.8365,-1.8368,-1.8365,-1.8354,-1.8362,-1.8362,-1.8362,-1.8362,-1.8362,-1.847,-1.8468,-1.846,-1.8455,-1.845,-1.8444,-1.8441,-1.8434,-1.8429,-1.8421,-1.8415,-1.8409,-1.84,-1.8388,-1.8383,-1.8377,-1.8374,-1.8374,-1.8374,-1.8374,-1.8374,-1.8369,-1.8375,-1.8375,-1.8375,-1.8375,-1.8375,0,-1.8482,-1.8476,-1.8472,-1.8464,-1.8459,-1.8453,-1.8445,-1.8442,-1.8437,-1.8429,-1.8424,-1.8416,-1.8409,-1.8399,-1.8391,-1.8388,-1.8385,-1.8386,-1.8386,-1.8385,-1.8378,-1.8379,-1.8389,-1.8389,-1.8389,-1.8389,-1.8389,-1.8389,-1.8488,-1.8486,-1.848,-1.8474,-1.8467,-1.8462,-1.8458,-1.8452,-1.8446,-1.8438,-1.8432,-1.8425,-1.8416,-1.8407,-1.84,-1.8397,-1.8394,-1.8397,-1.8393,-1.8387,-1.8386,-1.8384,-1.8385,-1.8397,-1.8397,-1.84,-1.84,-1.84]}]]